BRU729 UMMS-LTFM

Flight info

Callsign BRU729
Flight time N/A
Altitude 39000
Route SORFO2G SORFO L979 ASKIL L736 LODKU M56 ABAGI B105 NATIT DCT MOLED DCT LIDUS G242 ZG DCT ITAKA DCT KUDAS DCT PINMU A955 LURIS/N0481F390 DCT KUSSA DCT IZERO UL21 TBN UM11 CRM UM688 EKSUK UL852 TIVUG UM10 HAKAN N644 GUMRU T315 NUGBA
Aircraft A332/H-SDE3GHIJ2J3J5M1RVWXY/LB2D1

Departure

Time 2026-05-06 14:09
Airport Minsk National Airport (UMMS)

Arrival

Time N/A
Airport İstanbul Airport (LTFM)
Time Latitude Longitude Altitude Speed Heading
2026-05-06 13:21 53.88855 28.03422 678 ft 0 kts 343°
2026-05-06 13:54 53.88854 28.03422 677 ft 0 kts 343°
2026-05-06 13:55 53.88855 28.03422 678 ft 0 kts 343°
2026-05-06 13:55 53.88843 28.03428 678 ft 0 kts 345°
2026-05-06 13:55 53.88829 28.03435 678 ft 2 kts 326°
2026-05-06 13:56 53.88821 28.03445 678 ft 2 kts 314°
2026-05-06 13:56 53.88812 28.03465 678 ft 2 kts 297°
2026-05-06 13:56 53.88805 28.03497 678 ft 2 kts 274°
2026-05-06 13:56 53.88805 28.03514 678 ft 2 kts 262°
2026-05-06 13:57 53.88806 28.03526 678 ft 0 kts 257°
2026-05-06 14:02 53.88804 28.03511 678 ft 5 kts 257°
2026-05-06 14:02 53.88793 28.03408 678 ft 11 kts 262°
2026-05-06 14:02 53.88791 28.03260 678 ft 13 kts 274°
2026-05-06 14:03 53.88736 28.03196 678 ft 13 kts 153°
2026-05-06 14:03 53.88660 28.03291 678 ft 13 kts 138°
2026-05-06 14:03 53.88596 28.03412 678 ft 13 kts 104°
2026-05-06 14:03 53.88637 28.03550 678 ft 14 kts 49°
2026-05-06 14:04 53.88704 28.03682 678 ft 15 kts 49°
2026-05-06 14:04 53.88779 28.03828 678 ft 16 kts 49°
2026-05-06 14:04 53.88860 28.03984 678 ft 18 kts 49°
2026-05-06 14:04 53.88947 28.04154 678 ft 19 kts 49°
2026-05-06 14:05 53.89039 28.04337 678 ft 21 kts 49°
2026-05-06 14:05 53.89139 28.04526 678 ft 22 kts 49°
2026-05-06 14:05 53.89222 28.04633 678 ft 9 kts 355°
2026-05-06 14:05 53.89292 28.04605 678 ft 10 kts 13°
2026-05-06 14:06 53.89401 28.04596 678 ft 24 kts 321°
2026-05-06 14:06 53.89543 28.04386 678 ft 28 kts 318°
2026-05-06 14:06 53.89695 28.04153 678 ft 29 kts 317°
2026-05-06 14:06 53.89851 28.03917 678 ft 30 kts 323°
2026-05-06 14:07 53.90014 28.03680 678 ft 31 kts 317°
2026-05-06 14:07 53.90178 28.03436 678 ft 31 kts 319°
2026-05-06 14:07 53.90318 28.03225 678 ft 11 kts 319°
2026-05-06 14:07 53.90417 28.03166 678 ft 12 kts 20°
2026-05-06 14:08 53.90462 28.03231 678 ft 13 kts 47°
2026-05-06 14:08 53.90501 28.03328 678 ft 7 kts 92°
2026-05-06 14:08 53.90471 28.03405 678 ft 9 kts 137°
2026-05-06 14:08 53.90361 28.03572 678 ft 45 kts 139°
2026-05-06 14:09 53.89922 28.04225 678 ft 119 kts 138°
2026-05-06 14:09 53.89145 28.05389 689 ft 177 kts 144°
2026-05-06 14:09 53.88179 28.06856 1255 ft 186 kts 142°
2026-05-06 14:09 53.87241 28.08275 2066 ft 186 kts 143°
2026-05-06 14:10 53.86256 28.09556 2923 ft 173 kts 150°
2026-05-06 14:10 53.85337 28.11012 3309 ft 187 kts 140°
2026-05-06 14:10 53.84317 28.12521 3617 ft 209 kts 144°
2026-05-06 14:10 53.83253 28.14385 4089 ft 234 kts 125°
2026-05-06 14:11 53.82788 28.17152 4633 ft 260 kts 94°
2026-05-06 14:11 53.83032 28.20310 5188 ft 280 kts 86°
2026-05-06 14:11 53.83166 28.23607 5903 ft 289 kts 91°
2026-05-06 14:11 53.83231 28.27020 6834 ft 293 kts 92°
2026-05-06 14:12 53.83274 28.30491 7696 ft 298 kts 92°
2026-05-06 14:12 53.83310 28.34004 8504 ft 304 kts 92°
2026-05-06 14:12 53.83356 28.38837 9632 ft 311 kts 92°
2026-05-06 14:12 53.83378 28.41278 9883 ft 319 kts 92°
2026-05-06 14:13 53.83412 28.45042 9793 ft 315 kts 92°
2026-05-06 14:13 53.83445 28.48740 9830 ft 312 kts 92°
2026-05-06 14:13 53.83475 28.52391 9834 ft 311 kts 92°
2026-05-06 14:13 53.83639 28.57292 9829 ft 315 kts 78°
2026-05-06 14:14 53.84160 28.59582 9832 ft 317 kts 60°
2026-05-06 14:14 53.85615 28.62406 9908 ft 326 kts 34°
2026-05-06 14:14 53.87672 28.63885 10827 ft 320 kts
2026-05-06 14:14 53.89856 28.64331 11810 ft 317 kts
2026-05-06 14:15 53.92034 28.64891 12562 ft 324 kts
2026-05-06 14:15 53.94279 28.65498 13345 ft 329 kts
2026-05-06 14:15 53.96570 28.66126 14125 ft 334 kts
2026-05-06 14:15 53.98871 28.66758 14935 ft 337 kts
2026-05-06 14:16 54.01181 28.67393 15647 ft 342 kts
2026-05-06 14:16 54.03618 28.68062 15978 ft 361 kts
2026-05-06 14:16 54.06176 28.68768 16245 ft 381 kts
2026-05-06 14:16 54.08837 28.69597 16454 ft 403 kts 12°
2026-05-06 14:17 54.11488 28.71646 16656 ft 426 kts 32°
2026-05-06 14:17 54.13698 28.75066 17341 ft 430 kts 47°
2026-05-06 14:17 54.15815 28.78713 18023 ft 434 kts 44°
2026-05-06 14:17 54.17968 28.82288 18712 ft 438 kts 44°
2026-05-06 14:18 54.20187 28.85932 19140 ft 448 kts 43°
2026-05-06 14:18 54.22497 28.89715 19406 ft 461 kts 43°
2026-05-06 14:18 54.24816 28.93513 20098 ft 462 kts 43°
2026-05-06 14:18 54.27157 28.97362 20783 ft 463 kts 44°
2026-05-06 14:19 54.29138 29.01706 21195 ft 469 kts 60°
2026-05-06 14:19 54.30343 29.06838 21764 ft 469 kts 77°
2026-05-06 14:19 54.30916 29.12360 22366 ft 469 kts 82°
2026-05-06 14:19 54.31482 29.17847 22844 ft 473 kts 81°
2026-05-06 14:20 54.32073 29.23436 23382 ft 475 kts 81°
2026-05-06 14:20 54.32673 29.29060 23928 ft 478 kts 81°
2026-05-06 14:20 54.33271 29.34680 24403 ft 481 kts 81°
2026-05-06 14:20 54.33862 29.40279 24900 ft 484 kts 81°
2026-05-06 14:21 54.34458 29.45967 25414 ft 486 kts 81°
2026-05-06 14:21 54.35060 29.51737 25853 ft 490 kts 81°
2026-05-06 14:21 54.35653 29.57444 26303 ft 493 kts 81°
2026-05-06 14:21 54.36261 29.63306 26737 ft 496 kts 81°
2026-05-06 14:22 54.36870 29.69152 27186 ft 498 kts 81°
2026-05-06 14:22 54.37479 29.75035 27585 ft 500 kts 81°
2026-05-06 14:22 54.38090 29.80970 28028 ft 499 kts 81°
2026-05-06 14:22 54.38693 29.86844 28411 ft 501 kts 81°
2026-05-06 14:23 54.39302 29.92818 28518 ft 506 kts 81°
2026-05-06 14:23 54.39900 29.98738 29113 ft 500 kts 82°
2026-05-06 14:23 54.40485 30.04560 29968 ft 490 kts 82°
2026-05-06 14:23 54.41059 30.10301 30530 ft 488 kts 82°
2026-05-06 14:24 54.41626 30.16015 30951 ft 488 kts 81°
2026-05-06 14:24 54.42198 30.21789 31436 ft 486 kts 81°
2026-05-06 14:24 54.42755 30.27465 31935 ft 484 kts 81°
2026-05-06 14:24 54.43313 30.33230 32391 ft 483 kts 81°
2026-05-06 14:25 54.43859 30.38894 32795 ft 482 kts 81°
2026-05-06 14:25 54.44400 30.44544 33197 ft 482 kts 81°
2026-05-06 14:25 54.44947 30.50272 33601 ft 481 kts 81°
2026-05-06 14:25 54.45483 30.55927 34014 ft 480 kts 81°
2026-05-06 14:26 54.46014 30.61550 34441 ft 478 kts 81°
2026-05-06 14:26 54.46548 30.67246 34816 ft 478 kts 82°
2026-05-06 14:26 54.47081 30.72950 35098 ft 478 kts 82°
2026-05-06 14:26 54.47605 30.78599 35361 ft 478 kts 82°
2026-05-06 14:27 54.48137 30.84358 35647 ft 477 kts 82°
2026-05-06 14:27 54.48653 30.89970 35886 ft 477 kts 82°
2026-05-06 14:27 54.49173 30.95648 36078 ft 478 kts 82°
2026-05-06 14:27 54.49690 31.01341 36350 ft 477 kts 82°
2026-05-06 14:28 54.50199 31.06977 36571 ft 477 kts 82°
2026-05-06 14:28 54.50700 31.12712 36790 ft 476 kts 82°
2026-05-06 14:28 54.51179 31.18330 37072 ft 476 kts 82°
2026-05-06 14:28 54.51655 31.23939 37307 ft 476 kts 82°
2026-05-06 14:29 54.52131 31.29572 37523 ft 476 kts 82°
2026-05-06 14:29 54.52764 31.37122 37858 ft 475 kts 82°
2026-05-06 14:29 54.53076 31.40858 38003 ft 474 kts 82°
2026-05-06 14:29 54.53696 31.48326 38232 ft 474 kts 82°
2026-05-06 14:30 54.54010 31.52138 38341 ft 474 kts 82°
2026-05-06 14:30 54.54469 31.57724 38508 ft 474 kts 82°
2026-05-06 14:30 54.54930 31.63380 38649 ft 474 kts 82°
2026-05-06 14:30 54.55384 31.68973 38782 ft 475 kts 83°
2026-05-06 14:31 54.55838 31.74609 38886 ft 473 kts 83°
2026-05-06 14:31 54.56294 31.80292 38861 ft 474 kts 83°
2026-05-06 14:31 54.57198 31.91689 38903 ft 479 kts 83°
2026-05-06 14:32 54.58091 32.03077 38879 ft 484 kts 83°
2026-05-06 14:32 54.58988 32.14654 38834 ft 486 kts 83°
2026-05-06 14:33 54.59865 32.26121 38881 ft 483 kts 83°
2026-05-06 14:33 54.60878 32.39552 38882 ft 482 kts 83°
2026-05-06 14:34 54.61585 32.49052 38884 ft 482 kts 83°
2026-05-06 14:34 54.62434 32.60592 38884 ft 482 kts 83°
2026-05-06 14:35 54.63270 32.72116 38877 ft 481 kts 83°
2026-05-06 14:35 54.64084 32.83488 38883 ft 483 kts 83°
2026-05-06 14:36 54.64896 32.94991 38884 ft 482 kts 83°
2026-05-06 14:36 54.65696 33.06492 38886 ft 483 kts 83°
2026-05-06 14:37 54.66486 33.17977 38882 ft 482 kts 83°
2026-05-06 14:37 54.67266 33.29509 38888 ft 482 kts 83°
2026-05-06 14:38 54.68032 33.40990 38887 ft 481 kts 83°
2026-05-06 14:38 54.68786 33.52465 38889 ft 481 kts 83°
2026-05-06 14:39 54.69532 33.63971 38887 ft 482 kts 83°
2026-05-06 14:39 54.70279 33.75687 38880 ft 489 kts 84°
2026-05-06 14:40 54.70972 33.87429 38876 ft 493 kts 87°
2026-05-06 14:40 54.71268 33.99353 38879 ft 496 kts 88°
2026-05-06 14:41 54.71564 34.11318 38882 ft 498 kts 88°
2026-05-06 14:41 54.71848 34.23265 38881 ft 500 kts 88°
2026-05-06 14:42 54.72124 34.35359 38876 ft 500 kts 88°
2026-05-06 14:42 54.72385 34.47342 38876 ft 500 kts 88°
2026-05-06 14:43 54.72636 34.59362 38875 ft 500 kts 88°
2026-05-06 14:43 54.72876 34.71451 38873 ft 500 kts 88°
2026-05-06 14:44 54.73104 34.83541 38876 ft 500 kts 88°
2026-05-06 14:45 54.73422 35.01623 38882 ft 500 kts 88°
2026-05-06 14:45 54.73619 35.13685 38880 ft 500 kts 88°
2026-05-06 14:46 54.73771 35.25697 38894 ft 498 kts 90°
2026-05-06 14:46 54.73788 35.37691 38901 ft 494 kts 90°
2026-05-06 14:47 54.73803 35.49606 38899 ft 494 kts 90°
2026-05-06 14:47 54.73807 35.61443 38909 ft 494 kts 90°
2026-05-06 14:48 54.73799 35.73427 38910 ft 493 kts 91°
2026-05-06 14:48 54.73779 35.85273 38915 ft 493 kts 91°
2026-05-06 14:49 54.73749 35.96582 38895 ft 490 kts 91°
2026-05-06 14:49 54.73716 36.06170 38878 ft 491 kts 91°
2026-05-06 14:50 54.73665 36.17965 38881 ft 492 kts 90°
2026-05-06 14:50 54.73598 36.29829 38901 ft 493 kts 91°
2026-05-06 14:51 54.73519 36.41713 38894 ft 494 kts 91°
2026-05-06 14:51 54.73429 36.53616 38896 ft 495 kts 91°
2026-05-06 14:52 54.73326 36.65610 38883 ft 496 kts 91°
2026-05-06 14:52 54.73228 36.77463 38885 ft 497 kts 91°
2026-05-06 14:53 54.73115 36.89669 38881 ft 498 kts 91°
2026-05-06 14:53 54.72990 37.01760 38891 ft 499 kts 91°
2026-05-06 14:54 54.72856 37.13770 38889 ft 500 kts 91°
2026-05-06 14:54 54.72705 37.25851 38884 ft 500 kts 91°
2026-05-06 14:55 54.72156 37.37918 38854 ft 500 kts 104°
2026-05-06 14:55 54.70978 37.43657 38890 ft 499 kts 116°
2026-05-06 14:55 54.68890 37.50827 38872 ft 499 kts 116°
2026-05-06 14:56 54.66375 37.59882 38874 ft 500 kts 115°
2026-05-06 14:56 54.63372 37.70771 38864 ft 500 kts 116°
2026-05-06 14:57 54.60433 37.81387 38867 ft 500 kts 116°
2026-05-06 14:57 54.57422 37.92218 38867 ft 500 kts 116°
2026-05-06 14:58 54.54370 38.03143 38861 ft 500 kts 116°
2026-05-06 14:58 54.51346 38.13920 38859 ft 500 kts 116°
2026-05-06 14:59 54.48924 38.25141 38872 ft 499 kts 100°
2026-05-06 14:59 54.47527 38.36873 38853 ft 500 kts 102°
2026-05-06 15:00 54.46008 38.48623 38869 ft 500 kts 102°
2026-05-06 15:00 54.44474 38.60315 38859 ft 500 kts 102°
2026-05-06 15:01 54.42927 38.72012 38869 ft 500 kts 103°
2026-05-06 15:01 54.41360 38.83763 38876 ft 499 kts 103°
2026-05-06 15:02 54.39791 38.95434 38873 ft 499 kts 103°
2026-05-06 15:02 54.37861 39.06853 38873 ft 497 kts 113°
2026-05-06 15:03 54.35169 39.17847 38880 ft 498 kts 112°
2026-05-06 15:03 54.32504 39.28888 38887 ft 497 kts 112°
2026-05-06 15:04 54.29848 39.39836 38898 ft 497 kts 112°
2026-05-06 15:04 54.27182 39.50771 38893 ft 496 kts 112°
2026-05-06 15:05 54.24506 39.61689 38891 ft 497 kts 112°
2026-05-06 15:05 54.21807 39.72650 38891 ft 497 kts 113°
2026-05-06 15:06 54.19127 39.83480 38895 ft 496 kts 113°
2026-05-06 15:06 54.16420 39.94362 38894 ft 496 kts 113°
2026-05-06 15:07 54.13683 40.05317 38894 ft 496 kts 113°
2026-05-06 15:07 54.11117 40.16277 38885 ft 495 kts 106°
2026-05-06 15:08 54.09233 40.27552 38879 ft 497 kts 106°
2026-05-06 15:08 54.07259 40.38936 38887 ft 496 kts 106°
2026-05-06 15:09 54.05286 40.50214 38882 ft 495 kts 106°
2026-05-06 15:09 54.03308 40.61440 38872 ft 495 kts 106°
2026-05-06 15:10 54.01307 40.72728 38877 ft 495 kts 107°
2026-05-06 15:10 53.99297 40.84007 38880 ft 494 kts 107°
2026-05-06 15:11 53.97285 40.95216 38880 ft 495 kts 107°
2026-05-06 15:11 53.95276 41.06506 38878 ft 495 kts 105°
2026-05-06 15:12 53.93453 41.17754 38880 ft 495 kts 105°
2026-05-06 15:12 53.91589 41.29078 38879 ft 494 kts 105°
2026-05-06 15:13 53.89724 41.40331 38883 ft 494 kts 105°
2026-05-06 15:13 53.87845 41.51596 38880 ft 493 kts 105°
2026-05-06 15:14 53.86024 41.62443 38880 ft 492 kts 105°
2026-05-06 15:14 53.84192 41.73295 38882 ft 492 kts 106°
2026-05-06 15:15 53.82381 41.83905 38877 ft 493 kts 106°
2026-05-06 15:15 53.80457 41.95097 38884 ft 493 kts 106°
2026-05-06 15:16 53.78533 42.06227 38894 ft 491 kts 106°
2026-05-06 15:16 53.76598 42.17347 38891 ft 491 kts 106°
2026-05-06 15:17 53.74656 42.28440 38887 ft 491 kts 106°
2026-05-06 15:17 53.72712 42.39479 38881 ft 492 kts 106°
2026-05-06 15:18 53.70738 42.50616 38894 ft 492 kts 106°
2026-05-06 15:18 53.68407 42.61465 38874 ft 491 kts 119°
2026-05-06 15:18 53.66434 42.66175 38901 ft 491 kts 132°
2026-05-06 15:19 53.63959 42.70118 38891 ft 491 kts 143°
2026-05-06 15:19 53.61043 42.73124 38894 ft 489 kts 156°
2026-05-06 15:19 53.57852 42.75133 38905 ft 488 kts 162°
2026-05-06 15:20 53.51504 42.79408 38899 ft 490 kts 158°
2026-05-06 15:20 53.45183 42.83931 38892 ft 491 kts 157°
2026-05-06 15:21 53.38890 42.88443 38884 ft 492 kts 157°
2026-05-06 15:21 53.32588 42.92950 38892 ft 492 kts 157°
2026-05-06 15:22 53.26347 42.97399 38892 ft 472 kts 158°
2026-05-06 15:22 53.20367 43.01647 38910 ft 466 kts 158°
2026-05-06 15:23 53.14325 43.05926 38900 ft 470 kts 157°
2026-05-06 15:23 53.08344 43.10355 38898 ft 470 kts 156°
2026-05-06 15:24 53.02348 43.14813 38902 ft 469 kts 156°
2026-05-06 15:24 52.96752 43.18959 38904 ft 468 kts 156°
2026-05-06 15:25 52.90763 43.23383 38906 ft 468 kts 156°
2026-05-06 15:25 52.84805 43.27772 38907 ft 472 kts 156°
2026-05-06 15:26 52.78739 43.32226 38896 ft 479 kts 156°
2026-05-06 15:26 52.72674 43.36666 38901 ft 483 kts 156°
2026-05-06 15:27 52.66472 43.41193 38911 ft 486 kts 156°
2026-05-06 15:27 52.60242 43.45725 38901 ft 489 kts 156°
2026-05-06 15:28 52.54004 43.50249 38903 ft 490 kts 156°
2026-05-06 15:28 52.47741 43.54777 38911 ft 491 kts 156°
2026-05-06 15:29 52.41456 43.59308 38903 ft 491 kts 156°
2026-05-06 15:29 52.35202 43.63800 38898 ft 492 kts 156°
2026-05-06 15:30 52.27858 43.69059 38905 ft 492 kts 156°
2026-05-06 15:30 52.22592 43.72818 38920 ft 492 kts 156°
2026-05-06 15:31 52.16282 43.77310 38925 ft 492 kts 156°
2026-05-06 15:31 52.10001 43.81767 38918 ft 491 kts 156°
2026-05-06 15:32 52.00578 43.88428 38925 ft 490 kts 156°
2026-05-06 15:32 51.94309 43.92842 38920 ft 489 kts 156°
2026-05-06 15:33 51.88045 43.97240 38914 ft 490 kts 156°
2026-05-06 15:33 51.81827 44.01591 38921 ft 491 kts 156°
2026-05-06 15:34 51.75487 44.06015 38902 ft 492 kts 156°
2026-05-06 15:34 51.69310 44.10313 38926 ft 492 kts 156°
2026-05-06 15:35 51.62988 44.14698 38905 ft 490 kts 156°
2026-05-06 15:35 51.56737 44.19020 38900 ft 490 kts 156°
2026-05-06 15:36 51.50447 44.23355 38909 ft 490 kts 156°
2026-05-06 15:36 51.44149 44.27684 38909 ft 492 kts 156°
2026-05-06 15:37 51.37810 44.32028 38919 ft 492 kts 156°
2026-05-06 15:37 51.31514 44.36330 38926 ft 491 kts 156°
2026-05-06 15:38 51.25207 44.40625 38909 ft 490 kts 156°
2026-05-06 15:38 51.19271 44.44652 38920 ft 490 kts 156°
2026-05-06 15:39 51.16048 44.46276 38904 ft 490 kts 168°
2026-05-06 15:39 51.12608 44.46816 38944 ft 491 kts 180°
2026-05-06 15:39 51.05778 44.45998 38937 ft 492 kts 183°
2026-05-06 15:40 51.02380 44.45653 38841 ft 481 kts 182°
2026-05-06 15:40 50.99122 44.45340 38874 ft 450 kts 182°
2026-05-06 15:40 50.96032 44.45049 39086 ft 445 kts 182°
2026-05-06 15:40 50.92907 44.44757 38870 ft 458 kts 182°
2026-05-06 15:41 50.86446 44.44154 38937 ft 468 kts 182°
2026-05-06 15:41 50.79976 44.43554 38936 ft 476 kts 182°
2026-05-06 15:42 50.73407 44.42944 38920 ft 483 kts 182°
2026-05-06 15:42 50.66629 44.42318 38928 ft 487 kts 182°
2026-05-06 15:43 50.59836 44.41692 38921 ft 490 kts 182°
2026-05-06 15:43 50.52965 44.41061 38922 ft 491 kts 182°
2026-05-06 15:44 50.46145 44.40436 38908 ft 493 kts 182°
2026-05-06 15:44 50.39243 44.39806 38920 ft 493 kts 182°
2026-05-06 15:45 50.32346 44.39177 38921 ft 494 kts 182°
2026-05-06 15:45 50.25491 44.38555 38912 ft 495 kts 182°
2026-05-06 15:46 50.18576 44.37929 38912 ft 494 kts 182°
2026-05-06 15:46 50.11709 44.37309 38914 ft 493 kts 182°
2026-05-06 15:47 50.04864 44.36692 38915 ft 491 kts 182°
2026-05-06 15:47 49.98024 44.36078 38908 ft 491 kts 182°
2026-05-06 15:48 49.91154 44.35463 38906 ft 492 kts 182°
2026-05-06 15:48 49.84268 44.34849 38911 ft 492 kts 182°
2026-05-06 15:49 49.77914 44.34283 38916 ft 492 kts 182°
2026-05-06 15:49 49.71018 44.33671 38910 ft 491 kts 182°
2026-05-06 15:50 49.64164 44.33064 38904 ft 491 kts 182°
2026-05-06 15:50 49.57324 44.32825 38904 ft 490 kts 172°
2026-05-06 15:51 49.53990 44.33950 38926 ft 488 kts 160°
2026-05-06 15:51 49.50843 44.36029 38931 ft 488 kts 154°
2026-05-06 15:51 49.44602 44.40188 38919 ft 489 kts 156°
2026-05-06 15:52 49.38321 44.44193 38925 ft 488 kts 156°
2026-05-06 15:52 49.31999 44.48197 38921 ft 488 kts 156°
2026-05-06 15:53 49.25715 44.52163 38926 ft 488 kts 156°
2026-05-06 15:53 49.19400 44.56140 38917 ft 488 kts 156°
2026-05-06 15:54 49.13104 44.60091 38934 ft 488 kts 156°
2026-05-06 15:54 49.06801 44.64037 38927 ft 487 kts 156°
2026-05-06 15:55 49.00503 44.67970 38927 ft 487 kts 157°
2026-05-06 15:55 48.94416 44.71761 38928 ft 487 kts 158°
2026-05-06 15:56 48.88069 44.75701 38927 ft 487 kts 158°
2026-05-06 15:56 48.81844 44.79889 38916 ft 487 kts 149°
2026-05-06 15:57 48.75925 44.85092 38921 ft 488 kts 150°
2026-05-06 15:57 48.70176 44.90038 38926 ft 486 kts 150°
2026-05-06 15:58 48.64255 44.95112 38926 ft 486 kts 150°
2026-05-06 15:58 48.58318 45.00183 38925 ft 486 kts 150°
2026-05-06 15:59 48.52413 45.05210 38925 ft 486 kts 150°
2026-05-06 15:59 48.46519 45.10218 38920 ft 487 kts 150°
2026-05-06 16:00 48.40563 45.15263 38914 ft 486 kts 150°
2026-05-06 16:00 48.34663 45.20249 38918 ft 486 kts 150°
2026-05-06 16:01 48.28738 45.25243 38921 ft 486 kts 150°
2026-05-06 16:01 48.22827 45.30210 38917 ft 486 kts 150°
2026-05-06 16:02 48.16912 45.35169 38920 ft 486 kts 150°
2026-05-06 16:02 48.10978 45.40128 38916 ft 487 kts 150°
2026-05-06 16:03 48.05032 45.45085 38907 ft 487 kts 150°
2026-05-06 16:03 47.99120 45.50001 38914 ft 487 kts 150°
2026-05-06 16:04 47.95015 45.53407 38907 ft 486 kts 150°
2026-05-06 16:04 47.89082 45.58319 38912 ft 486 kts 150°
2026-05-06 16:05 47.83148 45.63217 38913 ft 486 kts 150°
2026-05-06 16:05 47.77185 45.68126 38905 ft 486 kts 151°
2026-05-06 16:06 47.71314 45.72948 38910 ft 486 kts 151°
2026-05-06 16:06 47.65366 45.77820 38902 ft 487 kts 151°
2026-05-06 16:07 47.59420 45.82678 38913 ft 486 kts 151°
2026-05-06 16:07 47.53467 45.87528 38912 ft 487 kts 151°
2026-05-06 16:08 47.47492 45.92385 38901 ft 486 kts 151°
2026-05-06 16:08 47.41573 45.97183 38905 ft 486 kts 151°
2026-05-06 16:09 47.35588 46.02021 38920 ft 486 kts 151°
2026-05-06 16:09 47.29628 46.06826 38907 ft 486 kts 151°
2026-05-06 16:10 47.23670 46.11618 38897 ft 487 kts 151°
2026-05-06 16:10 47.17694 46.16413 38895 ft 486 kts 151°
2026-05-06 16:11 47.11742 46.21175 38901 ft 486 kts 151°
2026-05-06 16:11 47.05833 46.26065 38878 ft 486 kts 144°
2026-05-06 16:12 47.03379 46.29446 38887 ft 486 kts 129°
2026-05-06 16:12 47.01572 46.33659 38924 ft 486 kts 118°
2026-05-06 16:12 46.98077 46.42213 38889 ft 488 kts 122°
2026-05-06 16:13 46.94453 46.50573 38889 ft 489 kts 123°
2026-05-06 16:13 46.90777 46.58989 38886 ft 489 kts 123°
2026-05-06 16:14 46.87062 46.67463 38893 ft 490 kts 123°
2026-05-06 16:14 46.83403 46.75789 38904 ft 490 kts 124°
2026-05-06 16:15 46.79700 46.84183 38897 ft 490 kts 124°
2026-05-06 16:15 46.76008 46.92531 38892 ft 489 kts 124°
2026-05-06 16:16 46.72274 47.00943 38888 ft 488 kts 124°
2026-05-06 16:16 46.68574 47.09304 38888 ft 490 kts 123°
2026-05-06 16:17 46.64934 47.17678 38889 ft 490 kts 123°
2026-05-06 16:17 46.61243 47.26137 38883 ft 491 kts 123°
2026-05-06 16:18 46.57588 47.34487 38891 ft 491 kts 123°
2026-05-06 16:18 46.53894 47.42899 38889 ft 491 kts 123°
2026-05-06 16:19 46.50207 47.51273 38888 ft 491 kts 123°
2026-05-06 16:19 46.46514 47.59635 38880 ft 491 kts 123°
2026-05-06 16:20 46.42811 47.67989 38878 ft 491 kts 124°
2026-05-06 16:20 46.39076 47.76393 38868 ft 491 kts 124°
2026-05-06 16:21 46.35370 47.84707 38868 ft 492 kts 124°
2026-05-06 16:21 46.31644 47.93042 38890 ft 492 kts 124°
2026-05-06 16:22 46.28075 48.01507 38853 ft 494 kts 115°
2026-05-06 16:22 46.27114 48.06324 38891 ft 496 kts 102°
2026-05-06 16:22 46.26503 48.11221 38891 ft 497 kts 103°
2026-05-06 16:23 46.25054 48.21003 38884 ft 498 kts 104°
2026-05-06 16:23 46.23548 48.30831 38869 ft 498 kts 104°
2026-05-06 16:24 46.22032 48.40639 38859 ft 498 kts 104°
2026-05-06 16:24 46.20488 48.50424 38873 ft 497 kts 106°
2026-05-06 16:25 46.19187 48.55018 38849 ft 492 kts 122°
2026-05-06 16:25 46.17113 48.58871 38879 ft 486 kts 137°
2026-05-06 16:25 46.14411 48.61856 38874 ft 483 kts 152°
2026-05-06 16:25 46.11331 48.63633 38876 ft 479 kts 167°
2026-05-06 16:26 46.04820 48.65850 38846 ft 481 kts 166°
2026-05-06 16:26 45.98411 48.68387 38863 ft 482 kts 166°
2026-05-06 16:27 45.91951 48.70975 38869 ft 482 kts 166°
2026-05-06 16:27 45.85477 48.73568 38873 ft 482 kts 166°
2026-05-06 16:28 45.78972 48.76167 38871 ft 483 kts 166°
2026-05-06 16:28 45.72437 48.78769 38882 ft 483 kts 166°
2026-05-06 16:29 45.65978 48.81336 38872 ft 483 kts 166°
2026-05-06 16:29 45.59438 48.83929 38887 ft 483 kts 166°
2026-05-06 16:30 45.54069 48.86053 38900 ft 482 kts 166°
2026-05-06 16:30 45.46480 48.89047 38892 ft 483 kts 166°
2026-05-06 16:31 45.39962 48.91613 38898 ft 482 kts 166°
2026-05-06 16:31 45.33477 48.94159 38889 ft 482 kts 166°
2026-05-06 16:32 45.26980 48.96704 38902 ft 482 kts 166°
2026-05-06 16:32 45.20479 48.99246 38909 ft 482 kts 166°
2026-05-06 16:33 45.13970 49.01783 38916 ft 482 kts 166°
2026-05-06 16:34 45.04245 49.05563 38924 ft 482 kts 166°
2026-05-06 16:34 44.97768 49.08075 38925 ft 482 kts 167°
2026-05-06 16:35 44.91236 49.10600 38921 ft 482 kts 167°
2026-05-06 16:35 44.83642 49.13528 38939 ft 482 kts 167°
2026-05-06 16:36 44.78224 49.15614 38937 ft 482 kts 167°
2026-05-06 16:36 44.71737 49.18105 38939 ft 482 kts 167°
2026-05-06 16:37 44.65255 49.20587 38939 ft 482 kts 167°
2026-05-06 16:37 44.58774 49.23065 38943 ft 481 kts 167°
2026-05-06 16:38 44.52269 49.25546 38941 ft 481 kts 167°
2026-05-06 16:38 44.45815 49.28001 38948 ft 481 kts 167°
2026-05-06 16:39 44.39320 49.30466 38962 ft 480 kts 167°
2026-05-06 16:39 44.32861 49.32912 38962 ft 480 kts 167°
2026-05-06 16:40 44.26368 49.35365 38951 ft 480 kts 167°
2026-05-06 16:40 44.19902 49.37803 38963 ft 480 kts 167°
2026-05-06 16:41 44.13455 49.40227 38954 ft 480 kts 168°
2026-05-06 16:41 44.06984 49.42656 38962 ft 479 kts 168°
2026-05-06 16:42 44.00514 49.45078 38960 ft 479 kts 168°
2026-05-06 16:42 43.94075 49.47460 38971 ft 477 kts 170°
2026-05-06 16:42 43.90771 49.47900 38952 ft 469 kts 185°
2026-05-06 16:43 43.87590 49.47055 38993 ft 462 kts 201°
2026-05-06 16:43 43.84710 49.45087 38982 ft 460 kts 215°
2026-05-06 16:43 43.82348 49.42072 38994 ft 458 kts 230°
2026-05-06 16:44 43.78473 49.35074 38968 ft 460 kts 231°
2026-05-06 16:44 43.74420 49.28177 38978 ft 461 kts 230°
2026-05-06 16:45 43.69601 49.20059 38986 ft 462 kts 230°
2026-05-06 16:45 43.66202 49.14352 38984 ft 462 kts 230°
2026-05-06 16:46 43.62086 49.07458 38990 ft 463 kts 230°
2026-05-06 16:46 43.57991 49.00613 38985 ft 462 kts 230°
2026-05-06 16:47 43.53862 48.93731 38989 ft 462 kts 230°
2026-05-06 16:47 43.49751 48.86892 38987 ft 462 kts 230°
2026-05-06 16:48 43.45613 48.80026 38992 ft 461 kts 230°
2026-05-06 16:48 43.41519 48.73248 38998 ft 461 kts 230°
2026-05-06 16:49 43.37378 48.66409 38995 ft 461 kts 230°
2026-05-06 16:49 43.33262 48.59626 38998 ft 461 kts 230°
2026-05-06 16:50 43.29146 48.52860 39003 ft 461 kts 230°
2026-05-06 16:50 43.25033 48.46114 39002 ft 461 kts 230°
2026-05-06 16:51 43.21089 48.39149 39005 ft 460 kts 236°
2026-05-06 16:51 43.17395 48.31911 39008 ft 460 kts 234°
2026-05-06 16:52 43.13654 48.24682 39011 ft 460 kts 234°
2026-05-06 16:52 43.09918 48.17491 39008 ft 460 kts 234°
2026-05-06 16:53 43.06187 48.10328 39004 ft 460 kts 234°
2026-05-06 16:53 43.02460 48.03190 39006 ft 460 kts 234°
2026-05-06 16:54 42.98738 47.96079 39008 ft 460 kts 234°
2026-05-06 16:54 42.94989 47.88932 39009 ft 460 kts 234°
2026-05-06 16:55 42.91257 47.81836 39010 ft 460 kts 234°
2026-05-06 16:55 42.87506 47.74719 39025 ft 459 kts 234°
2026-05-06 16:56 42.83725 47.67565 39040 ft 459 kts 234°
2026-05-06 16:56 42.81013 47.59713 39052 ft 460 kts 255°
2026-05-06 16:57 42.79134 47.49807 39030 ft 462 kts 253°
2026-05-06 16:57 42.77704 47.42755 39034 ft 462 kts 253°
2026-05-06 16:58 42.75960 47.34233 39041 ft 463 kts 252°
2026-05-06 16:58 42.74214 47.25747 39058 ft 462 kts 252°
2026-05-06 16:59 42.72461 47.17251 39082 ft 462 kts 252°
2026-05-06 16:59 42.70707 47.08795 39070 ft 463 kts 252°
2026-05-06 17:00 42.68952 47.00362 39100 ft 462 kts 252°
2026-05-06 17:00 42.67184 46.91918 39112 ft 462 kts 252°
2026-05-06 17:01 42.65403 46.83450 39104 ft 462 kts 252°
2026-05-06 17:01 42.63619 46.75003 39104 ft 463 kts 252°
2026-05-06 17:02 42.61865 46.66729 38987 ft 440 kts 252°
2026-05-06 17:02 42.61027 46.62785 38877 ft 423 kts 252°
2026-05-06 17:02 42.60222 46.59007 38741 ft 409 kts 252°
2026-05-06 17:02 42.59441 46.55352 38570 ft 397 kts 252°
2026-05-06 17:03 42.58678 46.51780 38339 ft 387 kts 252°
2026-05-06 17:03 42.57923 46.48256 38099 ft 378 kts 252°
2026-05-06 17:03 42.57198 46.44878 38105 ft 376 kts 252°
2026-05-06 17:04 42.55682 46.37840 38110 ft 396 kts 252°